Regional Weather Roundup
Issued by NWS Newport/Morehead, NC

Current Version | Previous Version | Text Only | Print | Product List | Glossary Off
Versions: 1 2 3 4 5 6 7 8 9 10 11 12 13 14 15 16 17 18 19 20 21 22 23 24 25 26 27 28 29 30 31 32 33 34 35 36 37 38 39 40 41 42 43 44 45 46 47 48 49 50
000 ASUS42 KMHX 021225 RWRMHX WEATHER ROUNDUP FOR EASTERN NORTH CAROLINA NATIONAL WEATHER SERVICE NEWPORT/MOREHEAD CITY NC 800 AM EDT SUN AUG 02 2015 NOTE: "FAIR" INDICATES FEW OR NO CLOUDS BELOW 12,000 FEET WITH NO SIGNIFICANT WEATHER AND/OR OBSTRUCTIONS TO VISIBILITY NCZ015>017-031-032-045>047-102-103-021300- NORTH COAST CITY SKY/WX TMP DP RH WIND PRES REMARKS EDENTON SUNNY 77 68 74 CALM 29.92S ELIZABETH CITY SUNNY 75 73 93 W3 29.91S KITTY HAWK SUNNY 80 75 84 W7 29.90R MANTEO SUNNY 79 76 90 NW6 29.92R $$ NCZ045>047-081-094-103-104-021300- CENTRAL COAST CITY SKY/WX TMP DP RH WIND PRES REMARKS FRISCO SUNNY 81 73 76 NW8 29.92R SWANQUARTER N/A 81 N/A N/A NW5 29.88S $$ NCZ095-097-098-100-101-021300- SOUTHERN COAST CITY SKY/WX TMP DP RH WIND PRES REMARKS BEAUFORT SUNNY 78 74 87 W8 29.92S CEDAR ISLAND N/A 81 N/A N/A W6 29.97R JACKSONVILLE MOSUNNY 77 72 84 NW6 29.92R PINEY ISLAND SUNNY N/A N/A N/A W8 29.92R WILMINGTON CLOUDY 77 73 87 W6 29.93R $$ NCZ011>013-027>030-043-044-078>080-089-090>093-098-021300- COASTAL PLAIN CITY SKY/WX TMP DP RH WIND PRES REMARKS AHOSKIE SUNNY 70 64 81 CALM 29.93S CLINTON SUNNY 73 73 99 CALM 29.94S ELIZABETHTOWN SUNNY 77 73 86 NW3 29.94R GOLDSBORO SUNNY 74 65 73 N7 29.92R GREENVILLE SUNNY 72 66 83 N6 29.95S HAVELOCK SUNNY 77 74 90 W6 29.93R KENANSVILLE CLOUDY 73 72 97 CALM 29.94S FOG KINSTON SUNNY 73 72 94 N6 29.94S NEW BERN SUNNY 78 73 84 NW5 29.93S RICHLANDS SUNNY 79 70 73 CALM 29.93S ROCKY MOUNT SUNNY 76 61 59 N9 29.94S WASHINGTON SUNNY 74 71 91 NW3 29.93S WHITEVILLE SUNNY 75 72 89 CALM 29.93S $$ AMZ130-135-150-152-154-156-158-170-250-252-270-ANZ085-086-088-633-658-670-021300- MARINE OBSERVATIONS STATION/POSITION TIME TEMP WIND PRES WAVE SWELL AIR SEA DIR/SP/G HT/PER HT/PER (UTC) (F) (DEG/KT/KT) (MB) (FT/S) (FT/S) CHESAPEAKE LIGHT 1200 82 300/ 6/ 6 1013.3 64 E VA BEACH 1150 81 81 290/ 6/ 6 1012.0 3/11 3/11 DUCK 1200 79 75 300/ 6/ 8 1011.9 2 E DUCK 1111 78 N/A 1/13 2/13 OREGON INLET 1200 79 81 300/ 5/ 7 1012.6 13E OREGON INLT 1200 81 N/A 3/11 2/11 HATTERAS CG 1200 81 81 300/ 12/ 14 1012.8 DIAMOND BUOY 1150 81 85 270/ 8/ 10 1013.1 3/ 7 3/ 7 CAPE LOOKOUT 1200 82 290/ 7/ 9 1012.8 BEAUFORT LAB 1200 80 82 300/ 5/ 8 1012.5 30 SE NEW RVR IN NOT AVBL 27 SE WRIGHTSVLE 1200 78 82 300/ 6/ 8 N/A 5 SE WRIGHTSVLE NOT AVBL 225 S CAPE HAT 1150 83 81 220/ 16/ 17 1015.5 6/ 7 3/ 8 41 SE CHARLESTON 1150 81 84 240/ 6/ 8 1012.9 4/ 7 3/ 7 $$

USA.gov is the U.S. government's official web portal to all federal, state and local government web resources and services.